Location: Usti nad Labem
(50.6670°N, 14.0330°E)
Time: 18:19:30
(UTC+01:00)

ISS - Visible Passes

Search period start: 27 March 2015 00:00
Search period end: 06 April 2015 01:00
Orbit: 396 x 406 km, 51.6° (Epoch: 27 March)

Date Brightness Start Highest point End Pass type
(mag) Time Alt. Az. Time Alt. Az. Time Alt. Az.
27 Mar -3.5 03:52:38 78° W 03:52:49 87° SSW 03:56:04 10° ESE visible
28 Mar -1.0 03:01:32 20° E 03:01:32 20° E 03:02:43 10° E visible
28 Mar -2.8 04:34:08 22° W 04:35:46 40° SSW 04:38:49 10° SE visible
29 Mar -2.8 04:43:08 47° SSE 04:43:08 47° SSE 04:45:40 10° ESE visible
30 Mar -0.3 03:52:17 11° ESE 03:52:17 11° ESE 03:52:21 10° ESE visible
30 Mar -2.2 05:24:54 23° SW 05:25:14 24° SW 05:27:53 10° SSE visible
31 Mar -1.0 04:34:15 15° SE 04:34:15 15° SE 04:34:58 10° SE visible
04 Apr -1.5 20:50:04 10° S 20:51:54 16° SE 20:51:54 16° SE visible
05 Apr -2.7 21:31:26 10° SW 21:34:04 38° S 21:34:04 38° S visible
